DMSP 5D-2 F11 DEB, 28312

Orbit data source: Space-Track

DMSP 5D-2 F11 DEB, 28312 is space debris in SSO originally from a launch on Thu, 28 Nov 1991 UTC launched from the Air Force Western Test Range (AFWTR). Debris objects in space refer to the collection of defunct objects orbiting the Earth. Examples of debris include non-operational satellites, rocket bodies, and fragments generated from explosions, collisions, or faulty payload assembly.

Loading next visibility...
Identifier
28312, 1991-082Z
Orbit
SSO
Country
Flag of USUS
Related business
Manufacturer
Unknown
Mission
Spacecraft
Bus & Motor
Unknown
Mass
Unknown
Launch date (UTC)
1991-11-28 (34 years ago)
Launch vehicle
Unknown
Launch site
Air Force Western Test Range (AFWTR)
Object type
Payload
Rocket body
Debris
Shape & HBR
Unknown shape, 0.1 m
Radar Cross Section
Small (<0.1 m²)

Expand to show TLE details & history
Last TLE update: 13 hours ago

TLE from 13 hours ago
0 DMSP 5D-2 F11 DEB
1 28312U 91082Z   26121.03894113  .00000875  00000-0  38471-3 0  9993
2 28312  98.6069 154.8921 0009679 241.6766 118.3439 14.25977616140517
Epoch: 2026-05-01T00:56Z
TLE epoch observation values (Epoch: 2026-05-01T00:56:04.513Z)
Latitude
0.00005°
Longitude
-78.10364°
Altitude
811.44 km
Speed
7.446 km/s
True Right ascension
10h 19m 34s
True Declination
0° 00' 00"
Sunlit
Object was in daylight at epoch
Visualization orbit readout
Latitude
Unknown
Longitude
Unknown
Altitude
Unknown
Speed
Unknown
Apparent Right ascension
Unknown
Apparent Declination
Unknown
Sunlit
N/A
Visualization observer readout
Local Sidereal Time
21:55:12
Azimuth
Unknown
Elevation
Unknown
Doppler factor
Unknown
Orbital elements
Apogee altitude
809.303 km
Perigee altitude
795.403 km
Semi-major axis
7,180.49 km
Eccentricity
0.00097
Inclination
98.6069°
RAAN
154.8921°
Arg. of periapsis
241.6766°
True anomaly
118.44146°
Mean anomaly
118.3439°
Eccentric anomaly
118.39269°
Mean motion
3.56707 °/min
Orbital period
100.92 mins
BSTAR
0.00038471
Loading maneuver chart data...
Computing Atmospheric mass density...

Documentation

Showing up to 5 results
|